User: anonymous   Login
Location: *
(49.4547°N, 7.9131°E)
Time: 01:12:23
(UTC+00:00)
Language:

FREGAT/IRIS - Orbit

View from above orbital plane
View from above orbital plane
View from above satellite
View from above satellite

Ground track
Ground track

The orbit data is extracted from the following two-line orbital elements,

1 35867U 09049C   19324.56655847  .00012139  00000-0  84745-4 0  9994
2 35867  96.9566 357.3118 0005127  86.4474  65.9518 15.74429817572992
Epoch (UTC): 20 November 2019 13:35:50
Eccentricity: 0.0005127
inclination: 96.9566°
perigee height: 343 km
apogee height: 350 km
right ascension of ascending node: 357.3118°
argument of perigee: 86.4474°
revolutions per day: 15.74429817
mean anomaly at epoch: 65.9518°
orbit number at epoch: 57299

The dashed part of the orbit path shows where the satellite is in the earth's shadow,  

DLR